| time (UTC) | temp C | wind direction | speed KPH | gust KPH | rain 1hr cm | rain 24hr cm | rain mn cm | humidity % | barometer mb |
| 20260506070547 | 11 | 155 | 3.2 | 9.7 | 0.00 | 0.00 | 0.00 | 86 | 1007.9 |
| 20260506062047 | 12 | 156 | 3.2 | 11.3 | 0.00 | 0.00 | 0.00 | 83 | 1007.9 |
| 20260506061621 | 12 | 190 | 4.8 | 12.9 | 0.00 | 0.00 | 0.00 | 83 | 1008.0 |
| 20260506061047 | 12 | 175 | 6.4 | 12.9 | 0.00 | 0.00 | 0.00 | 83 | 1008.0 |
| 20260506060546 | 12 | 169 | 4.8 | 12.9 | 0.00 | 0.00 | 0.00 | 83 | 1008.0 |
| 20260506051047 | 13 | 163 | 3.2 | 9.7 | 0.00 | 0.00 | 0.00 | 81 | 1008.1 |
| 20260506050547 | 13 | 154 | 4.8 | 11.3 | 0.00 | 0.00 | 0.00 | 81 | 1008.1 |
| 20260506050107 | 13 | 155 | 6.4 | 11.3 | 0.00 | 0.00 | 0.00 | 81 | 1008.1 |
| 20260506045047 | 13 | 151 | 3.2 | 11.3 | 0.00 | 0.00 | 0.00 | 81 | 1008.3 |
| 20260506044554 | 13 | 210 | 4.8 | 11.3 | 0.00 | 0.00 | 0.00 | 81 | 1008.2 |
| 20260506044045 | 13 | 159 | 4.8 | 8.0 | 0.00 | 0.00 | 0.00 | 81 | 1008.1 |
| 20260506043548 | 13 | 161 | 4.8 | 6.4 | 0.00 | 0.00 | 0.00 | 81 | 1008.0 |
| 20260506043055 | 13 | 166 | 1.6 | 6.4 | 0.00 | 0.00 | 0.00 | 81 | 1008.1 |
| 20260506042546 | 13 | 173 | 0.0 | 9.7 | 0.00 | 0.00 | 0.00 | 81 | 1008.0 |
| 20260506042048 | 13 | 143 | 1.6 | 9.7 | 0.00 | 0.00 | 0.00 | 81 | 1007.9 |
| 20260506041554 | 13 | 151 | 4.8 | 8.0 | 0.00 | 0.00 | 0.00 | 81 | 1007.9 |
| 20260506041048 | 13 | 214 | 1.6 | 12.9 | 0.00 | 0.00 | 0.00 | 81 | 1008.2 |
| 20260506040545 | 13 | 206 | 1.6 | 12.9 | 0.00 | 0.00 | 0.00 | 81 | 1007.9 |
| 20260506040101 | 13 | 165 | 4.8 | 9.7 | 0.00 | 0.00 | 0.00 | 81 | 1008.0 |
| 20260506035548 | 13 | 204 | 3.2 | 11.3 | 0.00 | 0.00 | 0.00 | 80 | 1008.0 |
| 20260506035045 | 13 | 163 | 1.6 | 11.3 | 0.00 | 0.00 | 0.00 | 80 | 1008.1 |
| 20260506034551 | 13 | 201 | 4.8 | 11.3 | 0.00 | 0.00 | 0.00 | 80 | 1008.1 |
| 20260506034045 | 13 | 150 | 3.2 | 11.3 | 0.00 | 0.00 | 0.00 | 79 | 1007.9 |
| 20260506033546 | 13 | 179 | 3.2 | 9.7 | 0.00 | 0.00 | 0.00 | 79 | 1008.0 |
| 20260506033052 | 13 | 189 | 3.2 | 9.7 | 0.00 | 0.00 | 0.00 | 79 | 1007.8 |
| 20260506032549 | 13 | 214 | 4.8 | 9.7 | 0.00 | 0.00 | 0.00 | 79 | 1008.0 |
| 20260506032046 | 13 | 162 | 3.2 | 9.7 | 0.00 | 0.00 | 0.00 | 79 | 1007.8 |
| 20260506031553 | 13 | 162 | 4.8 | 9.7 | 0.00 | 0.00 | 0.00 | 79 | 1007.9 |
| 20260506031049 | 13 | 153 | 4.8 | 9.7 | 0.00 | 0.00 | 0.00 | 79 | 1007.9 |
| 20260506030548 | 13 | 178 | 4.8 | 9.7 | 0.00 | 0.00 | 0.00 | 79 | 1007.8 |
| 20260506030057 | 14 | 169 | 4.8 | 8.0 | 0.00 | 0.00 | 0.00 | 79 | 1007.8 |
| 20260506025548 | 14 | 168 | 4.8 | 8.0 | 0.00 | 0.00 | 0.00 | 79 | 1007.8 |
| 20260506025048 | 14 | 144 | 3.2 | 8.0 | 0.00 | 0.00 | 0.00 | 78 | 1007.8 |
| 20260506024557 | 14 | 159 | 4.8 | 8.0 | 0.00 | 0.00 | 0.00 | 78 | 1007.9 |
| 20260506024048 | 14 | 151 | 3.2 | 4.8 | 0.00 | 0.00 | 0.00 | 78 | 1007.9 |
| 20260506023546 | 14 | 153 | 1.6 | 3.2 | 0.00 | 0.00 | 0.00 | 78 | 1008.0 |
| 20260506023051 | 14 | 0 | 0.0 | 1.6 | 0.00 | 0.00 | 0.00 | 78 | 1008.0 |
| 20260506022548 | 15 | 0 | 0.0 | 3.2 | 0.00 | 0.00 | 0.00 | 77 | 1008.0 |
| 20260506022048 | 15 | 222 | 0.0 | 6.4 | 0.00 | 0.00 | 0.00 | 77 | 1008.1 |
| 20260506021601 | 15 | 0 | 1.6 | 6.4 | 0.00 | 0.00 | 0.00 | 76 | 1007.9 |
| 20260506021047 | 15 | 117 | 3.2 | 8.0 | 0.00 | 0.00 | 0.00 | 76 | 1007.9 |
| 20260506020548 | 15 | 0 | 0.0 | 8.0 | 0.00 | 0.00 | 0.00 | 76 | 1008.1 |
| 20260506020051 | 15 | 163 | 4.8 | 8.0 | 0.00 | 0.00 | 0.00 | 75 | 1008.1 |
| 20260506015552 | 15 | 180 | 1.6 | 4.8 | 0.00 | 0.00 | 0.00 | 75 | 1008.3 |
| 20260506015050 | 15 | 144 | 1.6 | 4.8 | 0.00 | 0.00 | 0.00 | 75 | 1008.2 |
| 20260506014551 | 15 | 0 | 0.0 | 3.2 | 0.00 | 0.00 | 0.00 | 74 | 1008.1 |
| 20260506014048 | 16 | 148 | 0.0 | 3.2 | 0.00 | 0.00 | 0.00 | 74 | 1008.1 |
| 20260506013545 | 16 | 138 | 1.6 | 3.2 | 0.00 | 0.00 | 0.00 | 73 | 1008.1 |
| 20260506013059 | 16 | 0 | 0.0 | 0.0 | 0.00 | 0.00 | 0.00 | 73 | 1008.2 |
| 20260506012549 | 16 | 0 | 0.0 | 0.0 | 0.00 | 0.00 | 0.00 | 72 | 1008.2 |
| 20260506012049 | 16 | 0 | 0.0 | 0.0 | 0.00 | 0.00 | 0.00 | 72 | 1008.1 |
| 20260506011601 | 16 | 0 | 0.0 | 0.0 | 0.00 | 0.00 | 0.00 | 72 | 1008.0 |
| 20260506011048 | 16 | 0 | 0.0 | 0.0 | 0.00 | 0.00 | 0.00 | 71 | 1007.9 |
| 20260506010548 | 16 | 0 | 0.0 | 3.2 | 0.00 | 0.00 | 0.00 | 71 | 1007.9 |
| 20260506010053 | 17 | 0 | 0.0 | 4.8 | 0.00 | 0.00 | 0.00 | 70 | 1007.8 |
| 20260506005547 | 17 | 165 | 0.0 | 4.8 | 0.00 | 0.00 | 0.00 | 70 | 1007.7 |
| 20260506005047 | 17 | 154 | 3.2 | 4.8 | 0.00 | 0.00 | 0.00 | 69 | 1007.6 |
| 20260506004546 | 17 | 86 | 3.2 | 4.8 | 0.00 | 0.00 | 0.00 | 69 | 1007.6 |
| 20260506004046 | 17 | 166 | 1.6 | 3.2 | 0.00 | 0.00 | 0.00 | 69 | 1007.8 |
| 20260506003549 | 17 | 91 | 1.6 | 4.8 | 0.00 | 0.00 | 0.00 | 69 | 1007.6 |
| 20260506003049 | 17 | 105 | 3.2 | 4.8 | 0.00 | 0.00 | 0.00 | 70 | 1007.5 |
| 20260506002545 | 17 | 0 | 0.0 | 3.2 | 0.00 | 0.00 | 0.00 | 69 | 1007.7 |
| 20260506002045 | 17 | 307 | 0.0 | 3.2 | 0.00 | 0.00 | 0.00 | 68 | 1007.8 |
| 20260506001551 | 17 | 332 | 0.0 | 3.2 | 0.00 | 0.00 | 0.00 | 68 | 1007.4 |
| 20260506001048 | 17 | 0 | 0.0 | 6.4 | 0.00 | 0.00 | 0.00 | 67 | 1007.1 |
| 20260506000548 | 18 | 66 | 1.6 | 9.7 | 0.00 | 0.00 | 0.00 | 67 | 1006.9 |
| 20260506000048 | 18 | 155 | 4.8 | 9.7 | 0.00 | 0.00 | 0.00 | 67 | 1006.6 |
| 20260505235548 | 18 | 153 | 4.8 | 8.0 | 0.00 | 0.00 | 0.00 | 67 | 1006.4 |
| 20260505235130 | 18 | 154 | 0.0 | 6.4 | 0.00 | 0.00 | 0.00 | 66 | 1006.4 |
| 20260505234606 | 18 | 68 | 3.2 | 11.3 | 0.00 | 0.00 | 0.00 | 67 | 1006.3 |
| 20260505234047 | 18 | 65 | 1.6 | 11.3 | 0.00 | 0.00 | 0.00 | 67 | 1006.2 |
| 20260505233547 | 18 | 158 | 8.0 | 11.3 | 0.00 | 0.00 | 0.00 | 66 | 1006.2 |
| 20260505233058 | 18 | 135 | 4.8 | 9.7 | 0.00 | 0.00 | 0.00 | 66 | 1006.0 |
| 20260505232547 | 18 | 105 | 3.2 | 8.0 | 0.00 | 0.00 | 0.00 | 66 | 1005.9 |
| 20260505232047 | 18 | 102 | 4.8 | 8.0 | 0.00 | 0.00 | 0.00 | 66 | 1006.0 |
| 20260505231607 | 18 | 133 | 1.6 | 9.7 | 0.00 | 0.00 | 0.00 | 65 | 1006.2 |
| 20260505231045 | 18 | 218 | 3.2 | 9.7 | 0.00 | 0.00 | 0.00 | 65 | 1006.1 |
| 20260505230545 | 18 | 141 | 1.6 | 20.9 | 0.00 | 0.00 | 0.00 | 67 | 1005.8 |
| 20260505230100 | 18 | 0 | 4.8 | 20.9 | 0.00 | 0.00 | 0.00 | 67 | 1006.0 |
| 20260505225547 | 17 | 345 | 8.0 | 25.7 | 0.00 | 0.00 | 0.00 | 68 | 1006.4 |
| 20260505225047 | 17 | 195 | 11.3 | 25.7 | 0.00 | 0.00 | 0.00 | 67 | 1004.7 |
| 20260505224554 | 17 | 193 | 12.9 | 27.4 | 0.00 | 0.00 | 0.00 | 67 | 1004.4 |
| 20260505224050 | 17 | 224 | 14.5 | 27.4 | 0.00 | 0.00 | 0.00 | 67 | 1004.4 |
| 20260505223546 | 17 | 172 | 16.1 | 27.4 | 0.00 | 0.00 | 0.00 | 67 | 1004.4 |
| 20260505223103 | 18 | 218 | 12.9 | 29.0 | 0.00 | 0.00 | 0.00 | 67 | 1004.3 |
| 20260505222548 | 18 | 207 | 12.9 | 29.0 | 0.00 | 0.00 | 0.00 | 66 | 1004.3 |
| 20260505222051 | 18 | 192 | 17.7 | 35.4 | 0.00 | 0.00 | 0.00 | 66 | 1004.2 |
| 20260505221558 | 18 | 186 | 17.7 | 35.4 | 0.00 | 0.00 | 0.00 | 66 | 1004.2 |
| 20260505221048 | 18 | 227 | 17.7 | 32.2 | 0.00 | 0.00 | 0.00 | 66 | 1004.1 |
| 20260505220546 | 18 | 169 | 14.5 | 38.6 | 0.00 | 0.00 | 0.00 | 66 | 1004.1 |
| 20260505220057 | 18 | 197 | 19.3 | 40.2 | 0.00 | 0.00 | 0.00 | 66 | 1004.1 |
| 20260505215547 | 18 | 205 | 17.7 | 40.2 | 0.00 | 0.00 | 0.00 | 67 | 1003.9 |
| 20260505215047 | 18 | 167 | 19.3 | 40.2 | 0.00 | 0.00 | 0.00 | 67 | 1004.0 |
| 20260505214614 | 18 | 165 | 17.7 | 41.8 | 0.00 | 0.00 | 0.00 | 67 | 1004.1 |
| 20260505214046 | 17 | 196 | 19.3 | 41.8 | 0.00 | 0.00 | 0.00 | 67 | 1004.1 |
| 20260505213545 | 17 | 181 | 22.5 | 41.8 | 0.00 | 0.00 | 0.00 | 67 | 1003.9 |
| 20260505213057 | 17 | 184 | 22.5 | 41.8 | 0.00 | 0.00 | 0.00 | 67 | 1004.0 |
| 20260505212545 | 17 | 153 | 22.5 | 41.8 | 0.00 | 0.00 | 0.00 | 67 | 1004.0 |
| 20260505212048 | 18 | 157 | 17.7 | 40.2 | 0.00 | 0.00 | 0.00 | 67 | 1004.0 |
| 20260505211603 | 18 | 148 | 20.9 | 43.5 | 0.00 | 0.00 | 0.00 | 68 | 1004.0 |
| 20260505211047 | 18 | 133 | 25.7 | 43.5 | 0.00 | 0.00 | 0.00 | 66 | 1004.0 |
| 20260505210546 | 18 | 205 | 22.5 | 43.5 | 0.00 | 0.00 | 0.00 | 66 | 1004.0 |
| 20260505210056 | 18 | 152 | 25.7 | 43.5 | 0.00 | 0.00 | 0.00 | 65 | 1004.0 |
| 20260505205547 | 18 | 184 | 19.3 | 46.7 | 0.00 | 0.00 | 0.00 | 64 | 1003.9 |
| 20260505205048 | 19 | 152 | 24.1 | 46.7 | 0.00 | 0.00 | 0.00 | 63 | 1003.9 |
| 20260505204600 | 20 | 160 | 24.1 | 46.7 | 0.00 | 0.00 | 0.00 | 62 | 1003.9 |
| 20260505204046 | 20 | 187 | 24.1 | 35.4 | 0.00 | 0.00 | 0.00 | 62 | 1003.8 |
| 20260505203550 | 20 | 227 | 19.3 | 35.4 | 0.00 | 0.00 | 0.00 | 62 | 1004.2 |
| 20260505203059 | 20 | 217 | 19.3 | 38.6 | 0.00 | 0.00 | 0.00 | 62 | 1004.2 |
| 20260505202547 | 20 | 226 | 19.3 | 45.1 | 0.00 | 0.00 | 0.00 | 63 | 1004.1 |
| 20260505202045 | 20 | 189 | 17.7 | 45.1 | 0.00 | 0.00 | 0.00 | 64 | 1004.0 |
| 20260505201601 | 20 | 190 | 17.7 | 43.5 | 0.00 | 0.00 | 0.00 | 63 | 1004.1 |
| 20260505201045 | 20 | 185 | 25.7 | 43.5 | 0.00 | 0.00 | 0.00 | 62 | 1004.1 |
| 20260505200545 | 20 | 194 | 25.7 | 43.5 | 0.00 | 0.00 | 0.00 | 61 | 1004.2 |
| 20260505200106 | 20 | 180 | 20.9 | 40.2 | 0.00 | 0.00 | 0.00 | 62 | 1004.1 |
| 20260505195546 | 20 | 147 | 20.9 | 37.0 | 0.00 | 0.00 | 0.00 | 63 | 1004.3 |
| 20260505195049 | 20 | 162 | 20.9 | 38.6 | 0.00 | 0.00 | 0.00 | 65 | 1004.2 |
| 20260505194557 | 20 | 180 | 20.9 | 38.6 | 0.00 | 0.00 | 0.00 | 65 | 1004.2 |
| 20260505194045 | 20 | 172 | 17.7 | 38.6 | 0.00 | 0.00 | 0.00 | 65 | 1004.5 |
| 20260505193545 | 20 | 197 | 16.1 | 48.3 | 0.00 | 0.00 | 0.00 | 64 | 1004.4 |
| 20260505193057 | 19 | 153 | 22.5 | 48.3 | 0.00 | 0.00 | 0.00 | 64 | 1004.6 |
| 20260505192546 | 20 | 155 | 22.5 | 40.2 | 0.00 | 0.00 | 0.00 | 64 | 1004.6 |
| 20260505192048 | 20 | 157 | 24.1 | 37.0 | 0.00 | 0.00 | 0.00 | 64 | 1004.7 |
| 20260505191550 | 20 | 165 | 22.5 | 45.1 | 0.00 | 0.00 | 0.00 | 64 | 1004.9 |
| 20260505191049 | 20 | 146 | 25.7 | 45.1 | 0.00 | 0.00 | 0.00 | 65 | 1004.9 |
| 20260505190545 | 19 | 165 | 24.1 | 37.0 | 0.00 | 0.00 | 0.00 | 64 | 1005.1 |
| 20260505190051 | 20 | 152 | 19.3 | 41.8 | 0.00 | 0.00 | 0.00 | 64 | 1005.2 |
| 20260505185548 | 20 | 216 | 14.5 | 41.8 | 0.00 | 0.00 | 0.00 | 65 | 1005.2 |
| 20260505185047 | 20 | 158 | 27.4 | 41.8 | 0.00 | 0.00 | 0.00 | 64 | 1005.3 |
| 20260505184554 | 20 | 198 | 20.9 | 41.8 | 0.00 | 0.00 | 0.00 | 63 | 1005.3 |
| 20260505184048 | 20 | 155 | 19.3 | 40.2 | 0.00 | 0.00 | 0.00 | 63 | 1005.2 |
| 20260505183551 | 20 | 136 | 14.5 | 38.6 | 0.00 | 0.00 | 0.00 | 63 | 1005.4 |
| 20260505183103 | 20 | 205 | 19.3 | 40.2 | 0.00 | 0.00 | 0.00 | 63 | 1005.3 |
| 20260505182549 | 20 | 157 | 20.9 | 45.1 | 0.00 | 0.00 | 0.00 | 63 | 1005.6 |
| 20260505182048 | 20 | 155 | 27.4 | 45.1 | 0.00 | 0.00 | 0.00 | 64 | 1005.5 |
| 20260505181552 | 20 | 158 | 17.7 | 49.9 | 0.00 | 0.00 | 0.00 | 65 | 1005.5 |
| 20260505181048 | 19 | 158 | 22.5 | 49.9 | 0.00 | 0.00 | 0.00 | 64 | 1005.6 |
| 20260505180544 | 19 | 225 | 22.5 | 48.3 | 0.00 | 0.00 | 0.00 | 64 | 1005.5 |
| 20260505180057 | 19 | 183 | 30.6 | 49.9 | 0.00 | 0.00 | 0.00 | 63 | 1005.6 |
| 20260505175546 | 20 | 162 | 29.0 | 49.9 | 0.00 | 0.00 | 0.00 | 64 | 1005.5 |
| 20260505175045 | 20 | 172 | 27.4 | 48.3 | 0.00 | 0.00 | 0.00 | 61 | 1005.3 |
| 20260505174559 | 21 | 181 | 22.5 | 35.4 | 0.00 | 0.00 | 0.00 | 61 | 1005.5 |
| 20260505174046 | 21 | 178 | 17.7 | 35.4 | 0.00 | 0.00 | 0.00 | 62 | 1005.6 |
| 20260505173546 | 21 | 209 | 16.1 | 29.0 | 0.00 | 0.00 | 0.00 | 63 | 1005.7 |
| 20260505173050 | 20 | 202 | 19.3 | 40.2 | 0.00 | 0.00 | 0.00 | 63 | 1005.8 |
| 20260505172545 | 20 | 160 | 27.4 | 40.2 | 0.00 | 0.00 | 0.00 | 62 | 1005.8 |
| 20260505172048 | 20 | 165 | 25.7 | 41.8 | 0.00 | 0.00 | 0.00 | 61 | 1005.8 |
| 20260505171551 | 21 | 140 | 27.4 | 41.8 | 0.00 | 0.00 | 0.00 | 59 | 1005.8 |
| 20260505171046 | 21 | 169 | 20.9 | 37.0 | 0.00 | 0.00 | 0.00 | 60 | 1005.9 |
| 20260505170547 | 21 | 169 | 14.5 | 37.0 | 0.00 | 0.00 | 0.00 | 59 | 1005.9 |
| 20260505170057 | 22 | 185 | 22.5 | 30.6 | 0.00 | 0.00 | 0.00 | 57 | 1006.2 |
| 20260505165547 | 22 | 160 | 16.1 | 25.7 | 0.00 | 0.00 | 0.00 | 56 | 1006.3 |
| 20260505165048 | 22 | 134 | 12.9 | 32.2 | 0.00 | 0.00 | 0.00 | 56 | 1006.4 |
| 20260505164606 | 22 | 153 | 9.7 | 32.2 | 0.00 | 0.00 | 0.00 | 57 | 1006.5 |
| 20260505164047 | 22 | 145 | 20.9 | 32.2 | 0.00 | 0.00 | 0.00 | 55 | 1006.5 |
| 20260505163547 | 23 | 161 | 17.7 | 27.4 | 0.00 | 0.00 | 0.00 | 54 | 1006.7 |
| 20260505163055 | 23 | 143 | 11.3 | 27.4 | 0.00 | 0.00 | 0.00 | 54 | 1006.7 |
| 20260505162549 | 23 | 162 | 14.5 | 25.7 | 0.00 | 0.00 | 0.00 | 54 | 1006.6 |
| 20260505162046 | 23 | 151 | 9.7 | 25.7 | 0.00 | 0.00 | 0.00 | 54 | 1006.7 |
| 20260505161604 | 23 | 177 | 14.5 | 24.1 | 0.00 | 0.00 | 0.00 | 52 | 1006.8 |
| 20260505161046 | 23 | 226 | 14.5 | 37.0 | 0.00 | 0.00 | 0.00 | 51 | 1006.8 |
| 20260505160547 | 23 | 215 | 16.1 | 38.6 | 0.00 | 0.00 | 0.00 | 52 | 1007.1 |
| 20260505153103 | 22 | 177 | 11.3 | 20.9 | 0.00 | 0.00 | 0.00 | 55 | 1007.6 |
| 20260505152546 | 22 | 217 | 8.0 | 24.1 | 0.00 | 0.00 | 0.00 | 58 | 1007.8 |
| 20260505152048 | 21 | 214 | 11.3 | 24.1 | 0.00 | 0.00 | 0.00 | 58 | 1007.7 |
| 20260505151607 | 21 | 146 | 9.7 | 20.9 | 0.00 | 0.00 | 0.00 | 58 | 1007.7 |
| 20260505151048 | 21 | 137 | 12.9 | 19.3 | 0.00 | 0.00 | 0.00 | 59 | 1007.8 |
| 20260505150548 | 21 | 184 | 9.7 | 17.7 | 0.00 | 0.00 | 0.00 | 61 | 1007.8 |
| 20260505140547 | 18 | 195 | 9.7 | 20.9 | 0.00 | 0.00 | 0.00 | 64 | 1007.4 |
| 20260505140110 | 19 | 163 | 11.3 | 20.9 | 0.00 | 0.00 | 0.00 | 62 | 1007.5 |
| 20260505124549 | 17 | 254 | 12.9 | 20.9 | 0.00 | 0.00 | 0.00 | 67 | 1008.2 |
| 20260505124047 | 16 | 212 | 6.4 | 12.9 | 0.00 | 0.00 | 0.00 | 69 | 1008.1 |
| 20260505123546 | 16 | 199 | 4.8 | 12.9 | 0.00 | 0.00 | 0.00 | 69 | 1008.0 |
| 20260505123051 | 16 | 219 | 6.4 | 12.9 | 0.00 | 0.00 | 0.00 | 69 | 1007.8 |
| 20260505122547 | 16 | 211 | 4.8 | 12.9 | 0.00 | 0.00 | 0.00 | 70 | 1007.8 |
| 20260505122048 | 16 | 166 | 8.0 | 12.9 | 0.00 | 0.00 | 0.00 | 69 | 1007.7 |
| 20260505121549 | 15 | 176 | 4.8 | 9.7 | 0.00 | 0.00 | 0.00 | 70 | 1007.8 |
| 20260505121048 | 15 | 177 | 4.8 | 14.5 | 0.00 | 0.00 | 0.00 | 70 | 1007.8 |
| 20260505120546 | 15 | 188 | 4.8 | 14.5 | 0.00 | 0.00 | 0.00 | 72 | 1008.1 |
| 20260505120055 | 14 | 208 | 4.8 | 8.0 | 0.00 | 0.00 | 0.00 | 73 | 1007.9 |
| 20260505115545 | 14 | 194 | 3.2 | 8.0 | 0.00 | 0.00 | 0.00 | 73 | 1007.9 |
| 20260505115048 | 13 | 186 | 1.6 | 9.7 | 0.00 | 0.00 | 0.00 | 74 | 1007.9 |
| 20260505114559 | 13 | 155 | 1.6 | 11.3 | 0.00 | 0.00 | 0.00 | 76 | 1008.0 |
| 20260505114047 | 13 | 170 | 3.2 | 11.3 | 0.00 | 0.00 | 0.00 | 77 | 1008.2 |
| 20260505113549 | 12 | 229 | 4.8 | 12.9 | 0.00 | 0.00 | 0.00 | 78 | 1008.3 |
| 20260505113100 | 12 | 222 | 3.2 | 12.9 | 0.00 | 0.00 | 0.00 | 79 | 1008.3 |
| 20260505112546 | 12 | 212 | 4.8 | 12.9 | 0.00 | 0.00 | 0.00 | 78 | 1008.5 |
| 20260505112047 | 12 | 181 | 3.2 | 9.7 | 0.00 | 0.00 | 0.00 | 80 | 1008.4 |
| 20260505111553 | 11 | 224 | 3.2 | 8.0 | 0.00 | 0.00 | 0.00 | 81 | 1008.5 |
| 20260505111048 | 11 | 210 | 1.6 | 3.2 | 0.00 | 0.00 | 0.00 | 81 | 1008.3 |
| 20260505110545 | 11 | 200 | 0.0 | 3.2 | 0.00 | 0.00 | 0.00 | 82 | 1008.5 |
| 20260505102045 | 9 | 0 | 0.0 | 3.2 | 0.00 | 0.00 | 0.00 | 85 | 1008.3 |
| 20260505101553 | 9 | 0 | 0.0 | 3.2 | 0.00 | 0.00 | 0.00 | 85 | 1008.3 |
| 20260505101048 | 9 | 0 | 0.0 | 3.2 | 0.00 | 0.00 | 0.00 | 85 | 1008.4 |
| 20260505100544 | 9 | 208 | 0.0 | 1.6 | 0.00 | 0.00 | 0.00 | 84 | 1008.5 |
| 20260505100049 | 9 | 223 | 0.0 | 1.6 | 0.00 | 0.00 | 0.00 | 84 | 1008.4 |
| 20260505095547 | 9 | 0 | 0.0 | 1.6 | 0.00 | 0.00 | 0.00 | 83 | 1008.4 |
| 20260505095047 | 9 | 183 | 0.0 | 1.6 | 0.00 | 0.00 | 0.00 | 83 | 1008.3 |
| 20260505094546 | 9 | 0 | 0.0 | 1.6 | 0.00 | 0.00 | 0.00 | 82 | 1008.4 |
| 20260505094048 | 10 | 0 | 0.0 | 3.2 | 0.00 | 0.00 | 0.00 | 82 | 1008.3 |
| 20260505093548 | 10 | 0 | 0.0 | 3.2 | 0.00 | 0.00 | 0.00 | 81 | 1008.4 |
| 20260505093057 | 10 | 210 | 0.0 | 1.6 | 0.00 | 0.00 | 0.00 | 81 | 1008.3 |
| 20260505092547 | 10 | 203 | 0.0 | 4.8 | 0.00 | 0.00 | 0.00 | 80 | 1008.2 |
| 20260505092046 | 10 | 0 | 0.0 | 4.8 | 0.00 | 0.00 | 0.00 | 80 | 1008.3 |
| 20260505091603 | 10 | 0 | 0.0 | 4.8 | 0.00 | 0.00 | 0.00 | 79 | 1008.3 |
| 20260505091050 | 10 | 0 | 0.0 | 6.4 | 0.00 | 0.00 | 0.00 | 78 | 1008.3 |
| 20260505090545 | 10 | 192 | 3.2 | 6.4 | 0.00 | 0.00 | 0.00 | 78 | 1008.3 |
| 20260505090052 | 10 | 167 | 3.2 | 6.4 | 0.00 | 0.00 | 0.00 | 77 | 1008.5 |
| 20260505085546 | 11 | 156 | 3.2 | 4.8 | 0.00 | 0.00 | 0.00 | 75 | 1008.4 |
| 20260505085047 | 11 | 153 | 1.6 | 3.2 | 0.00 | 0.00 | 0.00 | 74 | 1008.5 |
| 20260505084555 | 11 | 150 | 1.6 | 3.2 | 0.00 | 0.00 | 0.00 | 74 | 1008.6 |
| 20260505084049 | 11 | 191 | 0.0 | 3.2 | 0.00 | 0.00 | 0.00 | 73 | 1008.5 |
| 20260505083547 | 11 | 0 | 0.0 | 3.2 | 0.00 | 0.00 | 0.00 | 73 | 1008.7 |
| 20260505083059 | 11 | 162 | 1.6 | 3.2 | 0.00 | 0.00 | 0.00 | 72 | 1008.6 |
| 20260505082548 | 11 | 144 | 0.0 | 3.2 | 0.00 | 0.00 | 0.00 | 71 | 1008.7 |
| 20260505082049 | 11 | 0 | 0.0 | 1.6 | 0.00 | 0.00 | 0.00 | 71 | 1008.7 |
| 20260505081550 | 12 | 148 | 0.0 | 1.6 | 0.00 | 0.00 | 0.00 | 70 | 1008.6 |
| 20260505081050 | 12 | 0 | 0.0 | 1.6 | 0.00 | 0.00 | 0.00 | 69 | 1008.6 |
| 20260505080545 | 12 | 170 | 0.0 | 1.6 | 0.00 | 0.00 | 0.00 | 69 | 1008.8 |
| 20260505080052 | 12 | 0 | 0.0 | 4.8 | 0.00 | 0.00 | 0.00 | 69 | 1008.7 |
| 20260505075545 | 12 | 0 | 0.0 | 4.8 | 0.00 | 0.00 | 0.00 | 69 | 1008.7 |
| 20260505075045 | 12 | 0 | 0.0 | 6.4 | 0.00 | 0.00 | 0.00 | 68 | 1008.7 |
| 20260505074549 | 12 | 231 | 0.0 | 6.4 | 0.00 | 0.00 | 0.00 | 68 | 1008.6 |
| 20260505074045 | 12 | 205 | 0.0 | 6.4 | 0.00 | 0.00 | 0.00 | 68 | 1008.7 |
| 20260505073547 | 12 | 0 | 0.0 | 4.8 | 0.00 | 0.00 | 0.00 | 68 | 1008.6 |
| 20260505073057 | 12 | 0 | 0.0 | 4.8 | 0.00 | 0.00 | 0.00 | 67 | 1008.8 |
| 20260505072548 | 12 | 219 | 0.0 | 4.8 | 0.00 | 0.00 | 0.00 | 67 | 1008.8 |
| 20260505072046 | 12 | 175 | 1.6 | 4.8 | 0.00 | 0.00 | 0.00 | 67 | 1008.7 |
| 20260505071558 | 12 | 243 | 0.0 | 4.8 | 0.00 | 0.00 | 0.00 | 67 | 1008.7 |
| 20260505071045 | 12 | 258 | 0.0 | 9.7 | 0.00 | 0.00 | 0.00 | 66 | 1008.7 |